カタログに戻る

USA 573

運用中軍事VLEO
NORAD 67485·PAYLOAD·🇺🇸 United States

打ち上げ Jan 17, 2026 から Vandenberg Space Force Base

Loading…

次のパス (今後24時間)

TLE

古いSource: Mike McCants

元期: Mar 20, 2026, 01:49 UTC

1 67485U 26011B   26079.07599469 0.00000000  00000-0  00000-0 0    06
2 67485  70.0000 100.9190 0002000 154.1430 205.8569 14.96712962    01

AllMySatでUSA 573をリアルタイム追跡

Download on the App Store